RISAT-2BR2

导读

RISAT-2BR2(后更名为地球观测卫星-01)是印度于2020年11月7日发射的合成孔径雷达成像卫星,隶属于RISAT-2系列,属于印度天基监视系统项目的组成部分。卫星重630千克,搭载直径3.6米雷达天线,运行于近地轨道,最高分辨率达0.35米,性能跻身世界先进水平。作为军民两用卫星,它可定期对印度领土及邻国区域重访成像,既承担边境、海域监视侦察任务,也可用于灾害监测、资源勘测等民用领域。

基本信息
目录编号:
46905
目录名称:
RISAT-2BR2
国际标识:
2020-081A
轨道中心:
EARTH
卫星名称:
RISAT-2BR2
卫星全名:
--
卫星状态:
在轨 (已飞行2135 天)
发射日期:
2020-11-07 UTC
国别 :
印度 (IN)
星等 :
--
该卫星已列入 空间交会检测服务 Space Conjunction Data Service (SCDS) ,当前飞行风险评估等级: 无高风险
轨道信息
数据来源 国际轨道数据
星历时间: 2026-09-12T17:49:19+0800
9小时前
查看轨道信息
半长轴: 6942.315km
偏心率: 0.0014187
轨道倾角: 36.898°
近地点辐角 143.594°
升交点赤经 66.577°
平近点角 216.577°
近地点: 554.328km
远地点: 574.028km
周期: 95.944分钟
每日圈数: 15.008813
详细信息
使用方式:
暂无
2D轨道图
3D轨道图
轨道高度分析图
轨道倾角分析图
轨道综合分析图
查看轨道综合分析图
与全量物体交会距离演化趋势
与全量物体交会风险概率演化趋势